• In Austria
  • List of Countries
  • For 7 days
  • Water Temperature
  • Satellite Maps
  • Weather Map
  • News
  • Weather Widgets
  • user-avatar
    Login

    Hourly Weather Escaldes-Engordany

    Today, 26 September, Wednesday

    Time Temperature Precipitation Wind Pressure Humidity
    00:00 +9°C° 0 mm 2 mps 647 mmHg 89%
    01:00 +9°C° 0 mm 2 mps 647 mmHg 89%
    02:00 +9°C° 0 mm 2 mps 647 mmHg 88%
    03:00 +9°C° 0 mm 2 mps 647 mmHg 88%
    04:00 +9°C° 0 mm 2 mps 648 mmHg 87%
    05:00 +8°C° 0 mm 2 mps 648 mmHg 87%
    06:00 +9°C° 0 mm 1 mps 647 mmHg 86%
    07:00 +10°C° 0 mm 2 mps 648 mmHg 77%
    08:00 +13°C° 0 mm 2 mps 649 mmHg 69%
    09:00 +15°C° 0 mm 2 mps 650 mmHg 60%
    10:00 +17°C° 0 mm 3 mps 651 mmHg 57%
    11:00 +18°C° 0 mm 3 mps 651 mmHg 53%
    12:00 +19°C° 0 mm 3 mps 652 mmHg 49%
    13:00 +19°C° 0 mm 3 mps 651 mmHg 49%
    14:00 +19°C° 0 mm 3 mps 651 mmHg 50%
    15:00 +19°C° 0 mm 3 mps 651 mmHg 50%
    16:00 +17°C° 0 mm 3 mps 650 mmHg 59%
    17:00 +15°C° 0 mm 2 mps 650 mmHg 68%
    18:00 +12°C° 0 mm 2 mps 649 mmHg 77%
    19:00 +12°C° 0 mm 2 mps 649 mmHg 79%
    20:00 +11°C° 0 mm 1 mps 649 mmHg 82%
    21:00 +10°C° 0 mm 1 mps 649 mmHg 84%
    22:00 +10°C° 0 mm 1 mps 649 mmHg 84%
    23:00 +10°C° 0 mm 1 mps 649 mmHg 84%

    Tomorrow, 27 September, Thursday

    Time Temperature Precipitation Wind Pressure Humidity
    00:00 +10°C° 0 mm 1 mps 648 mmHg 84%
    01:00 +9°C° 0 mm 1 mps 648 mmHg 83%
    02:00 +9°C° 0 mm 1 mps 648 mmHg 81%
    03:00 +9°C° 0 mm 1 mps 648 mmHg 80%
    04:00 +9°C° 0 mm 1 mps 648 mmHg 75%
    05:00 +9°C° 0 mm 1 mps 647 mmHg 71%
    06:00 +9°C° 0 mm 1 mps 647 mmHg 66%
    07:00 +12°C° 0 mm 1 mps 648 mmHg 57%
    08:00 +15°C° 0 mm 1 mps 650 mmHg 47%
    09:00 +19°C° 0 mm 1 mps 651 mmHg 37%
    10:00 +20°C° 0 mm 1 mps 651 mmHg 35%
    11:00 +20°C° 0 mm 2 mps 651 mmHg 33%
    12:00 +23°C° 0 mm 2 mps 651 mmHg 31%
    13:00 +21°C° 0 mm 2 mps 651 mmHg 32%
    14:00 +21°C° 0 mm 2 mps 650 mmHg 34%
    15:00 +21°C° 0 mm 2 mps 650 mmHg 35%
    16:00 +20°C° 0 mm 1 mps 648 mmHg 45%
    17:00 +16°C° 0 mm 1 mps 647 mmHg 56%
    18:00 +13°C° 0 mm 1 mps 646 mmHg 66%
    19:00 +13°C° 0 mm 1 mps 646 mmHg 68%
    20:00 +12°C° 0 mm 1 mps 646 mmHg 70%
    21:00 +12°C° 0 mm 1 mps 646 mmHg 72%
    22:00 +12°C° 0 mm 1 mps 646 mmHg 72%
    23:00 +12°C° 0 mm 1 mps 645 mmHg 72%

    Day after tomorrow, 28 September, Friday

    Time Temperature Precipitation Wind Pressure Humidity
    00:00 +10°C° 0 mm 2 mps 645 mmHg 71%
    01:00 +10°C° 0 mm 2 mps 645 mmHg 69%
    02:00 +10°C° 0 mm 2 mps 644 mmHg 66%
    03:00 +10°C° 0 mm 2 mps 644 mmHg 63%
    04:00 +10°C° 0 mm 2 mps 644 mmHg 63%
    05:00 +10°C° 0 mm 2 mps 643 mmHg 62%
    06:00 +10°C° 0 mm 2 mps 643 mmHg 62%
    07:00 +13°C° 0 mm 2 mps 644 mmHg 56%
    08:00 +16°C° 0 mm 1 mps 645 mmHg 50%
    09:00 +20°C° 0 mm 1 mps 646 mmHg 44%
    10:00 +20°C° 0 mm 2 mps 646 mmHg 41%
    11:00 +21°C° 0 mm 2 mps 646 mmHg 38%
    12:00 +23°C° 0 mm 2 mps 646 mmHg 35%
    13:00 +23°C° 0 mm 2 mps 646 mmHg 36%
    14:00 +23°C° 0 mm 2 mps 645 mmHg 37%
    15:00 +21°C° 0 mm 2 mps 644 mmHg 38%
    16:00 +19°C° 0 mm 2 mps 644 mmHg 46%
    17:00 +17°C° 0 mm 2 mps 643 mmHg 55%
    18:00 +15°C° 0 mm 2 mps 642 mmHg 63%
    19:00 +14°C° 0 mm 2 mps 642 mmHg 65%
    20:00 +13°C° 0 mm 2 mps 642 mmHg 68%
    21:00 +13°C° 0 mm 2 mps 642 mmHg 70%
    22:00 +12°C° 0 mm 2 mps 642 mmHg 71%
    23:00 +12°C° 0 mm 2 mps 641 mmHg 72%

    29 September, Saturday

    Time Temperature Precipitation Wind Pressure Humidity
    00:00 +12°C° 0 mm 2 mps 641 mmHg 73%
    01:00 +12°C° 0 mm 2 mps 641 mmHg 74%
    02:00 +10°C° 0 mm 2 mps 641 mmHg 75%
    03:00 +10°C° 0 mm 2 mps 641 mmHg 76%
    04:00 +11°C° 0 mm 1 mps 641 mmHg 76%
    05:00 +11°C° 0 mm 1 mps 640 mmHg 76%
    06:00 +11°C° 0 mm 1 mps 640 mmHg 77%
    07:00 +13°C° 0 mm 1 mps 641 mmHg 68%
    08:00 +16°C° 0 mm 1 mps 643 mmHg 59%
    09:00 +20°C° 0 mm 1 mps 644 mmHg 50%
    10:00 +20°C° 0 mm 1 mps 644 mmHg 47%
    11:00 +20°C° 0 mm 2 mps 644 mmHg 45%
    12:00 +21°C° 0 mm 2 mps 644 mmHg 42%
    13:00 +21°C° 0 mm 2 mps 643 mmHg 45%
    14:00 +20°C° 0 mm 2 mps 643 mmHg 47%
    15:00 +20°C° 0 mm 2 mps 643 mmHg 50%
    16:00 +19°C° 0.1 mm 1 mps 642 mmHg 56%
    17:00 +16°C° 0.1 mm 1 mps 642 mmHg 62%
    18:00 +15°C° 0.1 mm 1 mps 641 mmHg 68%
    19:00 +14°C° 0 mm 1 mps 641 mmHg 70%
    20:00 +13°C° 0 mm 1 mps 641 mmHg 72%
    21:00 +12°C° 0 mm 1 mps 642 mmHg 74%
    22:00 +12°C° 0 mm 1 mps 641 mmHg 75%
    23:00 +11°C° 0 mm 1 mps 641 mmHg 75%

    30 September, Sunday

    Time Temperature Precipitation Wind Pressure Humidity
    00:00 +11°C° 0 mm 1 mps 641 mmHg 75%
    01:00 +11°C° 0 mm 1 mps 641 mmHg 74%
    02:00 +10°C° 0 mm 1 mps 640 mmHg 73%
    03:00 +10°C° 0 mm 1 mps 640 mmHg 72%
    04:00 +10°C° 0 mm 1 mps 640 mmHg 70%
    05:00 +10°C° 0 mm 1 mps 640 mmHg 67%
    06:00 +10°C° 0 mm 1 mps 640 mmHg 65%
    07:00 +13°C° 0 mm 1 mps 641 mmHg 58%
    08:00 +15°C° 0 mm 1 mps 643 mmHg 51%
    09:00 +19°C° 0 mm 1 mps 644 mmHg 44%
    10:00 +20°C° 0 mm 1 mps 644 mmHg 42%
    11:00 +21°C° 0 mm 1 mps 644 mmHg 41%
    12:00 +21°C° 0 mm 2 mps 644 mmHg 40%
    13:00 +20°C° 0.2 mm 2 mps 644 mmHg 45%
    14:00 +19°C° 0.2 mm 2 mps 643 mmHg 50%
    15:00 +19°C° 0.2 mm 1 mps 643 mmHg 55%
    16:00 +18°C° 0.3 mm 1 mps 642 mmHg 61%
    17:00 +15°C° 0.3 mm 1 mps 642 mmHg 66%
    18:00 +14°C° 0.3 mm 1 mps 641 mmHg 72%
    19:00 +13°C° 0.2 mm 1 mps 641 mmHg 74%
    20:00 +13°C° 0.2 mm 1 mps 641 mmHg 77%
    21:00 +12°C° 0.2 mm 1 mps 641 mmHg 79%
    22:00 +11°C° 0 mm 1 mps 641 mmHg 82%
    23:00 +11°C° 0 mm 1 mps 641 mmHg 84%

    1 October, Monday

    Time Temperature Precipitation Wind Pressure Humidity
    00:00 +11°C° 0 mm 1 mps 641 mmHg 86%
    01:00 +9°C° 0.1 mm 2 mps 641 mmHg 87%
    02:00 +9°C° 0.1 mm 2 mps 640 mmHg 88%
    03:00 +9°C° 0.1 mm 2 mps 640 mmHg 89%
    04:00 +9°C° 0 mm 2 mps 640 mmHg 89%
    05:00 +8°C° 0 mm 2 mps 640 mmHg 89%
    06:00 +8°C° 0 mm 2 mps 640 mmHg 89%
    07:00 +9°C° 0 mm 2 mps 641 mmHg 82%
    08:00 +12°C° 0 mm 2 mps 641 mmHg 75%
    09:00 +13°C° 0 mm 2 mps 642 mmHg 68%
    10:00 +13°C° 0 mm 3 mps 642 mmHg 61%
    11:00 +14°C° 0 mm 3 mps 642 mmHg 54%
    12:00 +16°C° 0 mm 3 mps 642 mmHg 47%
    13:00 +16°C° 0.1 mm 3 mps 642 mmHg 48%
    14:00 +14°C° 0.1 mm 3 mps 641 mmHg 48%
    15:00 +14°C° 0.1 mm 4 mps 641 mmHg 49%
    16:00 +12°C° 0.4 mm 3 mps 640 mmHg 54%
    17:00 +10°C° 0.4 mm 3 mps 640 mmHg 60%
    18:00 +8°C° 0.4 mm 3 mps 640 mmHg 65%
    19:00 +7°C° 0.1 mm 3 mps 640 mmHg 67%
    20:00 +5°C° 0.1 mm 3 mps 640 mmHg 69%
    21:00 +4°C° 0.1 mm 3 mps 640 mmHg 70%
    22:00 +4°C° 0 mm 4 mps 640 mmHg 71%
    23:00 +3°C° 0 mm 4 mps 640 mmHg 71%
    Show more